sat.trackr.live / text

‹ back to catalog

STARLINK-35004

NORAD 65428 · 2025-192AA

PAYLOAD ACTIVE UNKNOWN

§ Identity

Operator
Country
US
Launch date
2025-08-31
Launch site
AFETR
Launch vehicle
Mass (kg)
RCS (m²)

Purposes: comms

External: N2YO · Heavens-Above · Gunter

§ Orbital elements

Epoch: 2026-09-20T16:09:05.681088Z

Period
93.85 min
Inclination
53.1643°
Eccentricity
0.0000726
Mean motion
15.34419821 rev/d
Perigee alt
462.1 km
Apogee alt
463.1 km
Semi-major
6,840.8 km
B*
5.9754e-4
RAAN
44.7838°
Arg perigee
89.3607°
Mean anomaly
270.7479°
Rev number
5,926

§ Raw data

STARLINK-350041 65428U 25192AA  26263.67298242  .00019879  00000+0  59754-3 0  99992 65428  53.1643  44.7838 0000726  89.3607 270.7479 15.34419821 59267

JSON: /api/v1/satellites/65428 · /tle

For live sub-satellite position, see the globe view (requires WebGL).

§ Visibility from observer

Set your observer location to see the next 7 days of passes ≥ 10°. The values pass through the URL so the page stays shareable.

No JS? Fill the form by hand. The geolocation button needs JavaScript.